Regional Weather Roundup
Issued by NWS Sterling, VA

Home | Current Version | Previous Version | Graphics & Text | Print | Product List | Glossary On
Versions: 1 2 3 4 5 6 7 8 9 10 11 12 13 14 15 16 17 18 19 20 21 22 23 24 25 26 27 28 29 30 31 32 33 34 35 36 37 38 39 40 41 42 43 44 45 46 47 48 49 50
000
ASUS41 KLWX 170910
RWRLWX

REGIONAL WEATHER ROUNDUP
NATIONAL WEATHER SERVICE BALTIMORE MD/WASHINGTON DC
400 AM EST TUE JAN 17 2017

Note: "FAIR" indicates few or no clouds below 12,000 feet
with no significant weather and/or obstructions to visibility.
 TC=TEMPERATURE CELSIUS

 * =Non NWS site. Station does not report precipitation (e.g. rain,
    snow, etc.), thunder, or fog.

DCZ001-MDZ009-015-VAZ040>042-051-053>054-171000-
WASHINGTON METRO

CITY           SKY/WX    TMP DP  RH WIND       PRES   REMARKS
WASHINGTON NAT CLOUDY    41  39  93 CALM      30.24F
DULLES         CLOUDY    40  37  89 S3        30.23F
ANDREWS AFB    CLOUDY    39  38  93 S3        30.22F
FT BELVOIR     MOCLDY    39  37  93 CALM      30.24S
QUANTICO       CLOUDY    40  39  97 SW5       30.25F
LEESBURG*      CLOUDY    43  43 100 MISG      30.23S
GAITHERSBURG*  CLOUDY    39  34  81 CALM      30.25F

$$

MDZ006>007-011-014-171000-
BALTIMORE METRO

CITY           SKY/WX    TMP DP  RH WIND       PRES   REMARKS
BWI AIRPORT    CLOUDY    38  37  97 CALM      30.23F
MD SCIENCE CTR   N/A     41  34  76 MISG      30.25F
ANNAPOLIS      CLOUDY    40  37  89 E3        30.24F
FORT MEADE*    CLOUDY    36  36 100 CALM      30.25F

$$

MDZ012-015-019>023-171000-
MARYLAND EASTERN SHORE

CITY           SKY/WX    TMP DP  RH WIND       PRES   REMARKS
OCEAN CITY     CLOUDY    42  38  85 CALM      30.27S
SALISBURY      CLOUDY    41  36  82 CALM      30.26F
BAY BRIDGE AP* CLOUDY    39  37  93 CALM      30.25S FOG
CAMBRIDGE*     MOCLDY    39  34  81 SE3       30.23F
EASTON*        HVY RAIN  41  37  86 CALM      30.28F

$$

MDZ017>025-171000-
SOUTHERN MARYLAND

CITY           SKY/WX    TMP DP  RH WIND       PRES   REMARKS
PATUXENT RIVER CLOUDY    42  36  79 S6        30.24F
ST INIGOES     NOT AVBL
LEONARDTOWN*   CLOUDY    41  36  81 S3        30.26S

$$

MDZ003>005-171000-
NORTH CENTRAL MARYLAND

CITY           SKY/WX    TMP DP  RH WIND       PRES   REMARKS
FREDERICK*     DRIZZLE   36  36 100 CALM      30.25S
HAGERSTOWN APT CLOUDY    34  30  85 NW8       30.21S FOG     WCI  27
WESTMINSTER*   CLOUDY    36  34  93 SE6       30.19F

$$

MDZ501>502-171000-
WESTERN MARYLAND

CITY           SKY/WX    TMP DP  RH WIND       PRES   REMARKS
OAKLAND*         N/A     46  46 100 SW10      30.12F
CUMBERLAND*    CLOUDY    36  36 100 CALM      30.22F

$$

VAZ025>031-171000-
SHENANDOAH VALLEY

CITY           SKY/WX    TMP DP  RH WIND       PRES   REMARKS
WINCHESTER*    CLOUDY    36  34  93 CALM      30.20S FOG
FRONT ROYAL*   CLOUDY    39  39 100 CALM      30.18F
LURAY*         RAIN      45  45 100 CALM      30.19F
NEW MARKET*    CLOUDY    42  40  94 CALM      30.19F
STAUNTON*      CLOUDY    42  40  93 CALM      30.20F
WAYNESBORO*    CLOUDY    41  40  96 CALM      30.18F

$$

WVZ021-048>050-054>055-171000-
EASTERN WEST VIRGINIA PANHANDLE

CITY           SKY/WX    TMP DP  RH WIND       PRES   REMARKS
MARTINSBURG    CLOUDY    37  34  89 N5        30.21S FOG
PETERSBURG*    CLOUDY    39  37  91 CALM      30.19F

$$

VAZ036>039-050-171000-
CENTRAL FOOTHILLS

CITY           SKY/WX    TMP DP  RH WIND       PRES   REMARKS
CHARLOTTESVILL CLOUDY    42  40  92 S3        30.19F
CULPEPER*      CLOUDY    42  41  97 CALM      30.23F
ORANGE*          N/A     41  41 100 CALM      30.23F
GORDONSVILLE*  CLOUDY    40  40  99 SW3       30.21F
WARRENTON*     CLOUDY    42  38  88 CALM      30.22S

$$

VAZ055>057-171000-
NORTH AND CENTRAL PIEDMONT

CITY           SKY/WX    TMP DP  RH WIND       PRES   REMARKS
FREDERICKSBRG* PTCLDY    40  40 100 CALM      30.23F
STAFFORD*      CLOUDY    39  38  97 CALM      30.27F

$$

NCZ024-NYZ072-PAZ021-071-VAZ022-071-171000-
OTHER REGIONAL OBSERVATIONS

CITY           SKY/WX    TMP DP  RH WIND       PRES   REMARKS
NEW YORK CITY  CLOUDY    40  27  59 W6        30.25F
PHILADELPHIA   CLOUDY    39  30  70 CALM      30.26F
PITTSBURGH     FOG       39  39 100 SE5       30.06F VSB 3/4
ROANOKE        FOG       40  40 100 CALM      30.22F VSB 1/4
RICHMOND       CLOUDY    41  41 100 SW5       30.25F FOG
RALEIGH        CLOUDY    48  44  86 SW7       30.25F

$$

ANZ530>537-171000-
MARINE OBSERVATIONS

STATION/POSITION TIME  TEMP    WIND        PRES
                       AIR SEA DIR/SP/G
                 (UTC) (F)     (DEG/KT/KT) (MB)
THOMAS PT LIGHT  0900   40 38  170/  6/  7   N/A
BALT KEY BRIDGE  0842   38      60/  2/  2 1024.1F
COVE POINT       0842   40     200/  6/  7 1024.5F
LEWISETTA        0842   42 42  210/  7/  8 1024.0F
SOLOMONS ISLAND  0848      41  190/  5/  5   N/A
PINEY POINT      0848          180/  4/  4   N/A

$$




USA.gov is the U.S. government's official web portal to all federal, state and local government web resources and services.